| time (UTC) | temp F | wind direction | speed MPH | gust MPH | rain 1hr in | rain 24hr in | rain mn in | humidity % | barometer mb |
| 20260504234533 | 68 | 263 | 1.0 | 6.0 | 0.00 | 0.00 | 0.00 | 38 | 1004.1 |
| 20260504233032 | 70 | 207 | 0.0 | 4.0 | 0.00 | 0.00 | 0.00 | 39 | 1004.0 |
| 20260504231531 | 71 | 223 | 2.0 | 5.0 | 0.00 | 0.00 | 0.00 | 34 | 1004.1 |
| 20260504230040 | 72 | 200 | 3.0 | 5.0 | 0.00 | 0.00 | 0.00 | 32 | 1004.0 |
| 20260504224532 | 73 | 270 | 2.0 | 6.0 | 0.00 | 0.00 | 0.00 | 34 | 1003.9 |
| 20260504223029 | 73 | 255 | 2.0 | 5.0 | 0.00 | 0.00 | 0.00 | 34 | 1004.0 |
| 20260504221542 | 73 | 266 | 3.0 | 8.0 | 0.00 | 0.00 | 0.00 | 37 | 1004.0 |
| 20260504220030 | 73 | 282 | 6.0 | 15.0 | 0.00 | 0.00 | 0.00 | 33 | 1004.1 |
| 20260504214526 | 73 | 263 | 9.0 | 18.0 | 0.00 | 0.00 | 0.00 | 34 | 1004.3 |
| 20260504213032 | 73 | 240 | 10.0 | 16.0 | 0.00 | 0.00 | 0.00 | 33 | 1004.3 |
| 20260504211525 | 73 | 254 | 8.0 | 14.0 | 0.00 | 0.00 | 0.00 | 33 | 1004.4 |
| 20260504210023 | 73 | 269 | 5.0 | 16.0 | 0.00 | 0.00 | 0.00 | 35 | 1004.3 |
| 20260504204525 | 73 | 286 | 9.0 | 20.0 | 0.00 | 0.00 | 0.00 | 34 | 1004.5 |
| 20260504203020 | 73 | 257 | 8.0 | 21.0 | 0.00 | 0.00 | 0.00 | 36 | 1004.7 |
| 20260504201516 | 73 | 252 | 8.0 | 13.0 | 0.00 | 0.00 | 0.00 | 37 | 1005.0 |
| 20260504200015 | 73 | 255 | 11.0 | 17.0 | 0.00 | 0.00 | 0.00 | 38 | 1005.2 |
| 20260504194512 | 72 | 251 | 10.0 | 18.0 | 0.00 | 0.00 | 0.00 | 41 | 1005.4 |
| 20260504193010 | 72 | 263 | 8.0 | 19.0 | 0.00 | 0.00 | 0.00 | 42 | 1005.7 |
| 20260504191507 | 72 | 235 | 12.0 | 19.0 | 0.00 | 0.00 | 0.00 | 39 | 1005.8 |
| 20260504190006 | 72 | 300 | 6.0 | 18.0 | 0.00 | 0.00 | 0.00 | 43 | 1006.1 |
| 20260504184503 | 71 | 297 | 10.0 | 20.0 | 0.00 | 0.00 | 0.00 | 44 | 1006.2 |
| 20260504183100 | 71 | 278 | 14.0 | 22.0 | 0.00 | 0.00 | 0.00 | 43 | 1006.5 |
| 20260504181601 | 69 | 268 | 9.0 | 18.0 | 0.00 | 0.00 | 0.00 | 45 | 1006.4 |
| 20260504180058 | 70 | 275 | 12.0 | 21.0 | 0.00 | 0.00 | 0.00 | 45 | 1006.7 |
| 20260504174553 | 69 | 257 | 10.0 | 24.0 | 0.00 | 0.00 | 0.00 | 46 | 1006.8 |
| 20260504173052 | 69 | 240 | 10.0 | 20.0 | 0.00 | 0.00 | 0.00 | 47 | 1006.7 |
| 20260504171552 | 68 | 294 | 11.0 | 18.0 | 0.00 | 0.00 | 0.00 | 48 | 1006.8 |
| 20260504081534 | 52 | 271 | 4.0 | 12.0 | 0.00 | 0.00 | 0.00 | 56 | 1009.6 |
| 20260504050008 | 51 | 209 | 1.0 | 6.0 | 0.00 | 0.00 | 0.00 | 56 | 1010.7 |
| 20260504044507 | 52 | 249 | 2.0 | 9.0 | 0.00 | 0.00 | 0.00 | 56 | 1010.8 |
| 20260504043004 | 52 | 242 | 1.0 | 5.0 | 0.00 | 0.00 | 0.00 | 56 | 1010.9 |
| 20260504041504 | 52 | 219 | 2.0 | 7.0 | 0.00 | 0.00 | 0.00 | 56 | 1010.9 |
| 20260504040123 | 53 | 265 | 6.0 | 13.0 | 0.00 | 0.00 | 0.00 | 54 | 1010.9 |
| 20260504034559 | 53 | 251 | 4.0 | 12.0 | 0.00 | 0.00 | 0.00 | 55 | 1010.7 |
| 20260504033102 | 53 | 232 | 4.0 | 9.0 | 0.00 | 0.00 | 0.00 | 56 | 1010.8 |
| 20260504031600 | 53 | 229 | 4.0 | 9.0 | 0.00 | 0.00 | 0.00 | 56 | 1010.9 |
| 20260504030058 | 54 | 275 | 7.0 | 15.0 | 0.00 | 0.00 | 0.00 | 54 | 1010.9 |
| 20260504024557 | 54 | 240 | 8.0 | 20.0 | 0.00 | 0.00 | 0.00 | 53 | 1011.0 |
| 20260504023102 | 54 | 282 | 13.0 | 20.0 | 0.00 | 0.00 | 0.00 | 53 | 1011.1 |
| 20260504021557 | 54 | 238 | 9.0 | 16.0 | 0.00 | 0.00 | 0.00 | 53 | 1011.3 |
| 20260504020056 | 54 | 319 | 7.0 | 10.0 | 0.00 | 0.00 | 0.00 | 54 | 1011.3 |
| 20260504014605 | 54 | 262 | 7.0 | 13.0 | 0.00 | 0.00 | 0.00 | 55 | 1011.4 |
| 20260504013101 | 54 | 244 | 7.0 | 13.0 | 0.00 | 0.00 | 0.00 | 54 | 1011.4 |
| 20260504011555 | 53 | 297 | 7.0 | 16.0 | 0.00 | 0.00 | 0.00 | 54 | 1011.7 |
| 20260504010055 | 54 | 254 | 11.0 | 21.0 | 0.00 | 0.00 | 0.00 | 54 | 1011.7 |
| 20260504004554 | 54 | 285 | 10.0 | 26.0 | 0.00 | 0.00 | 0.00 | 51 | 1011.8 |
| 20260504003101 | 54 | 291 | 8.0 | 13.0 | 0.00 | 0.00 | 0.00 | 50 | 1011.5 |
| 20260504001602 | 54 | 267 | 12.0 | 18.0 | 0.00 | 0.00 | 0.00 | 50 | 1011.3 |
| 20260504000042 | 54 | 279 | 9.0 | 28.0 | 0.00 | 0.00 | 0.00 | 51 | 1011.4 |